owner,sensor,date,latitude,longitude,vertical_datum,wind_speed,wind_to_direction,wind_speed_of_gust,qcFlag 
TCOON,ioos:station:TCOON:068:1,2008-09-01T00:00:00Z,27.2970,-97.4049,0.0,3.3,63.0,4.1,'11111222,11111222,11111222' 
TCOON,ioos:station:TCOON:068:1,2008-09-01T01:00:00Z,27.2970,-97.4049,0.0,2.5,89.0,3.0,'11111222,11111222,11111222' 
TCOON,ioos:station:TCOON:068:1,2008-09-01T03:00:00Z,27.2970,-97.4049,0.0,0.0,17.0,99.0,'11111222,11111222,11144222' 
TCOON,ioos:station:TCOON:068:1,2008-09-01T04:00:00Z,27.2970,-97.4049,0.0,1.3,45.0,1.9,'11111222,11111222,11111222' 
TCOON,ioos:station:TCOON:068:1,2008-09-01T05:00:00Z,27.2970,-97.4049,0.0,1.2,36.0,1.5,'11111222,11111222,11111222' 
TCOON,ioos:station:TCOON:068:1,2008-09-01T06:00:00Z,27.2970,-97.4049,0.0,1.2,332.0,1.7,'11111222,11111222,11111222' 
TCOON,ioos:station:TCOON:068:1,2008-09-01T07:00:00Z,27.2970,-97.4049,0.0,2.8,295.0,3.2,'11111222,11111222,11111222' 
TCOON,ioos:station:TCOON:068:1,2008-09-01T08:00:00Z,27.2970,-97.4049,0.0,3.8,309.0,4.2,'11111222,11111222,11111222' 
TCOON,ioos:station:TCOON:068:1,2008-09-01T09:00:00Z,27.2970,-97.4049,0.0,4.2,311.0,4.9,'11111222,11111222,11111222' 
TCOON,ioos:station:TCOON:068:1,2008-09-01T10:00:00Z,27.2970,-97.4049,0.0,4.1,318.0,4.6,'11111222,11111222,11111222' 
TCOON,ioos:station:TCOON:068:1,2008-09-01T11:00:00Z,27.2970,-97.4049,0.0,4.8,309.0,5.6,'11111222,11111222,11111222' 
TCOON,ioos:station:TCOON:068:1,2008-09-01T12:00:00Z,27.2970,-97.4049,0.0,5.0,307.0,5.8,'11111222,11111222,11111222' 
TCOON,ioos:station:TCOON:068:1,2008-09-01T13:00:00Z,27.2970,-97.4049,0.0,5.1,309.0,6.2,'11111222,11111222,11111222' 
TCOON,ioos:station:TCOON:068:1,2008-09-01T14:00:00Z,27.2970,-97.4049,0.0,5.2,316.0,6.0,'11111222,11111222,11111222' 
TCOON,ioos:station:TCOON:068:1,2008-09-01T15:00:00Z,27.2970,-97.4049,0.0,4.9,319.0,5.6,'11111222,11111222,11111222' 
TCOON,ioos:station:TCOON:068:1,2008-09-01T16:00:00Z,27.2970,-97.4049,0.0,4.4,317.0,6.0,'11111222,11111222,11111222' 
TCOON,ioos:station:TCOON:068:1,2008-09-01T17:00:00Z,27.2970,-97.4049,0.0,4.2,290.0,5.1,'11111222,11111222,11111222' 
TCOON,ioos:station:TCOON:068:1,2008-09-01T18:00:00Z,27.2970,-97.4049,0.0,4.0,332.0,5.0,'11111222,11111222,11111222' 
TCOON,ioos:station:TCOON:068:1,2008-09-01T20:00:00Z,27.2970,-97.4049,0.0,6.1,345.0,7.3,'11111222,11111222,11111222' 
TCOON,ioos:station:TCOON:068:1,2008-09-01T21:00:00Z,27.2970,-97.4049,0.0,5.2,327.0,11.1,'11111222,11111222,11111222' 
TCOON,ioos:station:TCOON:068:1,2008-09-01T22:00:00Z,27.2970,-97.4049,0.0,5.4,333.0,5.9,'11111222,11111222,11111222' 
TCOON,ioos:station:TCOON:068:1,2008-09-01T23:00:00Z,27.2970,-97.4049,0.0,4.0,4.0,4.4,'11111222,11111222,11111222' 
TCOON,ioos:station:TCOON:068:1,2008-09-02T00:00:00Z,27.2970,-97.4049,0.0,2.9,18.0,3.5,'11111222,11111222,11111222' 
TCOON,ioos:station:TCOON:068:1,2008-09-02T01:00:00Z,27.2970,-97.4049,0.0,4.2,154.0,4.9,'11111222,11111222,11111222' 
TCOON,ioos:station:TCOON:068:1,2008-09-02T02:00:00Z,27.2970,-97.4049,0.0,4.8,168.0,5.7,'11111222,11111222,11111222' 
TCOON,ioos:station:TCOON:068:1,2008-09-02T03:00:00Z,27.2970,-97.4049,0.0,5.4,197.0,6.2,'11111222,11111222,11111222' 
TCOON,ioos:station:TCOON:068:1,2008-09-02T04:00:00Z,27.2970,-97.4049,0.0,5.4,206.0,6.1,'11111222,11111222,11111222' 
TCOON,ioos:station:TCOON:068:1,2008-09-02T05:00:00Z,27.2970,-97.4049,0.0,6.3,201.0,7.5,'11111222,11111222,11111222' 
TCOON,ioos:station:TCOON:068:1,2008-09-02T06:00:00Z,27.2970,-97.4049,0.0,6.9,208.0,7.7,'11111222,11111222,11111222' 
TCOON,ioos:station:TCOON:068:1,2008-09-02T07:00:00Z,27.2970,-97.4049,0.0,6.9,203.0,8.3,'11111222,11111222,11111222' 
TCOON,ioos:station:TCOON:068:1,2008-09-02T08:00:00Z,27.2970,-97.4049,0.0,7.3,213.0,8.5,'11111222,11111222,11111222' 
TCOON,ioos:station:TCOON:068:1,2008-09-02T09:00:00Z,27.2970,-97.4049,0.0,6.8,224.0,7.6,'11111222,11111222,11111222' 
TCOON,ioos:station:TCOON:068:1,2008-09-02T11:00:00Z,27.2970,-97.4049,0.0,7.5,239.0,8.3,'11111222,11111222,11111222' 
TCOON,ioos:station:TCOON:068:1,2008-09-02T12:00:00Z,27.2970,-97.4049,0.0,5.8,257.0,6.4,'11111222,11111222,11111222' 
TCOON,ioos:station:TCOON:068:1,2008-09-02T13:00:00Z,27.2970,-97.4049,0.0,5.4,248.0,5.9,'11111222,11111222,11111222' 
TCOON,ioos:station:TCOON:068:1,2008-09-02T14:00:00Z,27.2970,-97.4049,0.0,5.2,253.0,5.7,'11111222,11111222,11111222' 
TCOON,ioos:station:TCOON:068:1,2008-09-02T15:00:00Z,27.2970,-97.4049,0.0,4.2,256.0,4.6,'11111222,11111222,11111222' 
TCOON,ioos:station:TCOON:068:1,2008-09-02T16:00:00Z,27.2970,-97.4049,0.0,3.6,230.0,4.1,'11111222,11111222,11111222' 
TCOON,ioos:station:TCOON:068:1,2008-09-02T17:00:00Z,27.2970,-97.4049,0.0,4.5,232.0,5.0,'11111222,11111222,11111222' 
TCOON,ioos:station:TCOON:068:1,2008-09-02T18:00:00Z,27.2970,-97.4049,0.0,4.1,224.0,4.9,'11111222,11111222,11111222' 
TCOON,ioos:station:TCOON:068:1,2008-09-02T19:00:00Z,27.2970,-97.4049,0.0,4.2,222.0,4.8,'11111222,11111222,11111222' 
TCOON,ioos:station:TCOON:068:1,2008-09-02T20:00:00Z,27.2970,-97.4049,0.0,4.2,229.0,4.8,'11111222,11111222,11111222' 
TCOON,ioos:station:TCOON:068:1,2008-09-02T21:00:00Z,27.2970,-97.4049,0.0,3.9,223.0,4.2,'11111222,11111222,11111222' 
TCOON,ioos:station:TCOON:068:1,2008-09-02T22:00:00Z,27.2970,-97.4049,0.0,5.2,155.0,6.1,'11111222,11111222,11111222' 
TCOON,ioos:station:TCOON:068:1,2008-09-02T23:00:00Z,27.2970,-97.4049,0.0,6.6,156.0,7.9,'11111222,11111222,11111222' 
TCOON,ioos:station:TCOON:068:1,2008-09-03T00:00:00Z,27.2970,-97.4049,0.0,7.0,158.0,8.4,'11111222,11111222,11111222' 
TCOON,ioos:station:TCOON:068:1,2008-09-03T01:00:00Z,27.2970,-97.4049,0.0,8.1,162.0,9.3,'11111222,11111222,11111222' 
TCOON,ioos:station:TCOON:068:1,2008-09-03T02:00:00Z,27.2970,-97.4049,0.0,8.2,177.0,9.6,'11111222,11111222,11111222' 
TCOON,ioos:station:TCOON:068:1,2008-09-03T03:00:00Z,27.2970,-97.4049,0.0,7.2,174.0,8.6,'11111222,11111222,11111222' 
TCOON,ioos:station:TCOON:068:1,2008-09-03T04:00:00Z,27.2970,-97.4049,0.0,8.4,178.0,9.7,'11111222,11111222,11111222' 
TCOON,ioos:station:TCOON:068:1,2008-09-03T05:00:00Z,27.2970,-97.4049,0.0,6.4,192.0,7.3,'11111222,11111222,11111222' 
TCOON,ioos:station:TCOON:068:1,2008-09-03T06:00:00Z,27.2970,-97.4049,0.0,7.5,196.0,8.2,'11111222,11111222,11111222' 
TCOON,ioos:station:TCOON:068:1,2008-09-03T07:00:00Z,27.2970,-97.4049,0.0,6.6,204.0,7.5,'11111222,11111222,11111222' 
TCOON,ioos:station:TCOON:068:1,2008-09-03T08:00:00Z,27.2970,-97.4049,0.0,6.0,206.0,6.8,'11111222,11111222,11111222' 
TCOON,ioos:station:TCOON:068:1,2008-09-03T09:00:00Z,27.2970,-97.4049,0.0,6.8,203.0,8.2,'11111222,11111222,11111222' 
TCOON,ioos:station:TCOON:068:1,2008-09-03T10:00:00Z,27.2970,-97.4049,0.0,5.7,226.0,6.5,'11111222,11111222,11111222' 
TCOON,ioos:station:TCOON:068:1,2008-09-03T11:00:00Z,27.2970,-97.4049,0.0,6.0,218.0,6.9,'11111222,11111222,11111222' 
TCOON,ioos:station:TCOON:068:1,2008-09-03T13:00:00Z,27.2970,-97.4049,0.0,4.5,221.0,5.4,'11111222,11111222,11111222' 
TCOON,ioos:station:TCOON:068:1,2008-09-03T14:00:00Z,27.2970,-97.4049,0.0,5.4,232.0,6.4,'11111222,11111222,11111222' 
TCOON,ioos:station:TCOON:068:1,2008-09-03T15:00:00Z,27.2970,-97.4049,0.0,3.9,235.0,4.7,'11111222,11111222,11111222' 
TCOON,ioos:station:TCOON:068:1,2008-09-03T16:00:00Z,27.2970,-97.4049,0.0,3.9,261.0,4.4,'11111222,11111222,11111222' 
TCOON,ioos:station:TCOON:068:1,2008-09-03T17:00:00Z,27.2970,-97.4049,0.0,2.6,254.0,3.1,'11111222,11111222,11111222' 
TCOON,ioos:station:TCOON:068:1,2008-09-03T18:00:00Z,27.2970,-97.4049,0.0,2.6,230.0,2.9,'11111222,11111222,11111222' 
TCOON,ioos:station:TCOON:068:1,2008-09-03T19:00:00Z,27.2970,-97.4049,0.0,1.9,211.0,2.2,'11111222,11111222,11111222' 
TCOON,ioos:station:TCOON:068:1,2008-09-03T20:00:00Z,27.2970,-97.4049,0.0,4.6,153.0,6.0,'11111222,11111222,11111222' 
TCOON,ioos:station:TCOON:068:1,2008-09-04T08:00:00Z,27.2970,-97.4049,0.0,3.8,217.0,4.7,'11111222,11111222,11111222' 
TCOON,ioos:station:TCOON:068:1,2008-09-04T09:00:00Z,27.2970,-97.4049,0.0,3.7,211.0,4.2,'11111222,11111222,11111222' 
TCOON,ioos:station:TCOON:068:1,2008-09-04T10:00:00Z,27.2970,-97.4049,0.0,2.3,240.0,2.7,'11111222,11111222,11111222' 
TCOON,ioos:station:TCOON:068:1,2008-09-04T11:00:00Z,27.2970,-97.4049,0.0,4.6,312.0,4.9,'11111222,11111222,11111222' 
TCOON,ioos:station:TCOON:068:1,2008-09-04T12:00:00Z,27.2970,-97.4049,0.0,5.5,340.0,6.2,'11111222,11111222,11111222' 
TCOON,ioos:station:TCOON:068:1,2008-09-04T15:00:00Z,27.2970,-97.4049,0.0,6.7,9.0,7.9,'11111222,11111222,11111222' 
TCOON,ioos:station:TCOON:068:1,2008-09-04T16:00:00Z,27.2970,-97.4049,0.0,9.2,6.0,10.2,'11111222,11111222,11111222' 
TCOON,ioos:station:TCOON:068:1,2008-09-04T17:00:00Z,27.2970,-97.4049,0.0,6.6,18.0,8.1,'11111222,11111222,11111222' 
TCOON,ioos:station:TCOON:068:1,2008-09-04T18:00:00Z,27.2970,-97.4049,0.0,6.5,48.0,7.4,'11111222,11111222,11111222' 
TCOON,ioos:station:TCOON:068:1,2008-09-04T19:00:00Z,27.2970,-97.4049,0.0,7.0,56.0,8.2,'11111222,11111222,11111222' 
TCOON,ioos:station:TCOON:068:1,2008-09-04T20:00:00Z,27.2970,-97.4049,0.0,6.0,53.0,6.9,'11111222,11111222,11111222' 
TCOON,ioos:station:TCOON:068:1,2008-09-05T03:00:00Z,27.2970,-97.4049,0.0,1.8,107.0,2.2,'11111222,11111222,11111222' 
TCOON,ioos:station:TCOON:068:1,2008-09-05T04:00:00Z,27.2970,-97.4049,0.0,3.4,156.0,4.3,'11111222,11111222,11111222' 
TCOON,ioos:station:TCOON:068:1,2008-09-05T05:00:00Z,27.2970,-97.4049,0.0,4.5,168.0,5.3,'11111222,11111222,11111222' 
TCOON,ioos:station:TCOON:068:1,2008-09-05T06:00:00Z,27.2970,-97.4049,0.0,3.3,171.0,3.9,'11111222,11111222,11111222' 
TCOON,ioos:station:TCOON:068:1,2008-09-05T07:00:00Z,27.2970,-97.4049,0.0,2.6,194.0,3.1,'11111222,11111222,11111222' 
TCOON,ioos:station:TCOON:068:1,2008-09-05T08:00:00Z,27.2970,-97.4049,0.0,1.2,212.0,1.4,'11111222,11111222,11111222' 
TCOON,ioos:station:TCOON:068:1,2008-09-05T09:00:00Z,27.2970,-97.4049,0.0,1.6,231.0,1.8,'11111222,11111222,11111222' 
TCOON,ioos:station:TCOON:068:1,2008-09-05T10:00:00Z,27.2970,-97.4049,0.0,3.3,338.0,3.6,'11111222,11111222,11111222' 
TCOON,ioos:station:TCOON:068:1,2008-09-05T11:00:00Z,27.2970,-97.4049,0.0,3.2,353.0,22.2,'11111222,11111222,11111222' 
TCOON,ioos:station:TCOON:068:1,2008-09-05T12:00:00Z,27.2970,-97.4049,0.0,3.9,345.0,4.4,'11111222,11111222,11111222' 
TCOON,ioos:station:TCOON:068:1,2008-09-05T13:00:00Z,27.2970,-97.4049,0.0,3.6,5.0,4.1,'11111222,11111222,11111222' 
TCOON,ioos:station:TCOON:068:1,2008-09-05T14:00:00Z,27.2970,-97.4049,0.0,4.5,7.0,5.4,'11111222,11111222,11111222' 
TCOON,ioos:station:TCOON:068:1,2008-09-05T15:00:00Z,27.2970,-97.4049,0.0,4.3,36.0,5.5,'11111222,11111222,11111222' 
TCOON,ioos:station:TCOON:068:1,2008-09-05T16:00:00Z,27.2970,-97.4049,0.0,4.5,54.0,5.9,'11111222,11111222,11111222' 
TCOON,ioos:station:TCOON:068:1,2008-09-05T17:00:00Z,27.2970,-97.4049,0.0,6.2,63.0,8.7,'11111222,11111222,11111222' 
TCOON,ioos:station:TCOON:068:1,2008-09-05T18:00:00Z,27.2970,-97.4049,0.0,6.2,61.0,6.9,'11111222,11111222,11111222' 
TCOON,ioos:station:TCOON:068:1,2008-09-05T19:00:00Z,27.2970,-97.4049,0.0,6.0,70.0,7.0,'11111222,11111222,11111222' 
TCOON,ioos:station:TCOON:068:1,2008-09-05T20:00:00Z,27.2970,-97.4049,0.0,6.9,83.0,8.7,'11111222,11111222,11111222' 
TCOON,ioos:station:TCOON:068:1,2008-09-05T21:00:00Z,27.2970,-97.4049,0.0,6.8,75.0,8.5,'11111222,11111222,11111222' 
TCOON,ioos:station:TCOON:068:1,2008-09-05T22:00:00Z,27.2970,-97.4049,0.0,7.9,71.0,9.3,'11111222,11111222,11111222' 
TCOON,ioos:station:TCOON:068:1,2008-09-05T23:00:00Z,27.2970,-97.4049,0.0,8.1,88.0,9.3,'11111222,11111222,11111222' 
TCOON,ioos:station:TCOON:068:1,2008-09-06T00:00:00Z,27.2970,-97.4049,0.0,7.1,83.0,8.0,'11111222,11111222,11111222' 
TCOON,ioos:station:TCOON:068:1,2008-09-06T01:00:00Z,27.2970,-97.4049,0.0,5.6,97.0,6.6,'11111222,11111222,11111222' 
TCOON,ioos:station:TCOON:068:1,2008-09-06T02:00:00Z,27.2970,-97.4049,0.0,5.5,105.0,6.7,'11111222,11111222,11111222' 
TCOON,ioos:station:TCOON:068:1,2008-09-06T03:00:00Z,27.2970,-97.4049,0.0,5.2,105.0,6.8,'11111222,11111222,11111222' 
TCOON,ioos:station:TCOON:068:1,2008-09-06T04:00:00Z,27.2970,-97.4049,0.0,4.4,104.0,5.2,'11111222,11111222,11111222' 
TCOON,ioos:station:TCOON:068:1,2008-09-06T05:00:00Z,27.2970,-97.4049,0.0,4.1,107.0,4.8,'11111222,11111222,11111222' 
TCOON,ioos:station:TCOON:068:1,2008-09-06T06:00:00Z,27.2970,-97.4049,0.0,3.4,105.0,4.5,'11111222,11111222,11111222' 
TCOON,ioos:station:TCOON:068:1,2008-09-06T07:00:00Z,27.2970,-97.4049,0.0,3.7,89.0,4.2,'11111222,11111222,11111222' 
TCOON,ioos:station:TCOON:068:1,2008-09-06T08:00:00Z,27.2970,-97.4049,0.0,3.4,90.0,3.9,'11111222,11111222,11111222' 
TCOON,ioos:station:TCOON:068:1,2008-09-06T09:00:00Z,27.2970,-97.4049,0.0,3.0,81.0,3.5,'11111222,11111222,11111222' 
TCOON,ioos:station:TCOON:068:1,2008-09-06T10:00:00Z,27.2970,-97.4049,0.0,3.7,65.0,4.5,'11111222,11111222,11111222' 
TCOON,ioos:station:TCOON:068:1,2008-09-06T11:00:00Z,27.2970,-97.4049,0.0,3.9,63.0,4.4,'11111222,11111222,11111222' 
TCOON,ioos:station:TCOON:068:1,2008-09-06T12:00:00Z,27.2970,-97.4049,0.0,3.9,62.0,4.5,'11111222,11111222,11111222' 
TCOON,ioos:station:TCOON:068:1,2008-09-06T13:00:00Z,27.2970,-97.4049,0.0,4.2,54.0,4.8,'11111222,11111222,11111222' 
TCOON,ioos:station:TCOON:068:1,2008-09-06T14:00:00Z,27.2970,-97.4049,0.0,6.2,52.0,7.2,'11111222,11111222,11111222' 
TCOON,ioos:station:TCOON:068:1,2008-09-06T15:00:00Z,27.2970,-97.4049,0.0,5.1,41.0,6.4,'11111222,11111222,11111222' 
TCOON,ioos:station:TCOON:068:1,2008-09-06T16:00:00Z,27.2970,-97.4049,0.0,5.2,52.0,6.6,'11111222,11111222,11111222' 
TCOON,ioos:station:TCOON:068:1,2008-09-06T17:00:00Z,27.2970,-97.4049,0.0,6.3,54.0,7.9,'11111222,11111222,11111222' 
TCOON,ioos:station:TCOON:068:1,2008-09-06T18:00:00Z,27.2970,-97.4049,0.0,6.0,51.0,7.1,'11111222,11111222,11111222' 
TCOON,ioos:station:TCOON:068:1,2008-09-06T19:00:00Z,27.2970,-97.4049,0.0,6.5,54.0,8.3,'11111222,11111222,11111222' 
TCOON,ioos:station:TCOON:068:1,2008-09-06T20:00:00Z,27.2970,-97.4049,0.0,6.4,49.0,7.8,'11111222,11111222,11111222' 
TCOON,ioos:station:TCOON:068:1,2008-09-06T21:00:00Z,27.2970,-97.4049,0.0,7.6,63.0,9.3,'11111222,11111222,11111222' 
TCOON,ioos:station:TCOON:068:1,2008-09-06T22:00:00Z,27.2970,-97.4049,0.0,7.0,63.0,8.2,'11111222,11111222,11111222' 
TCOON,ioos:station:TCOON:068:1,2008-09-06T23:00:00Z,27.2970,-97.4049,0.0,7.5,62.0,9.0,'11111222,11111222,11111222' 
TCOON,ioos:station:TCOON:068:1,2008-09-07T00:00:00Z,27.2970,-97.4049,0.0,7.4,77.0,8.9,'11111222,11111222,11111222' 
TCOON,ioos:station:TCOON:068:1,2008-09-07T01:00:00Z,27.2970,-97.4049,0.0,6.4,75.0,7.5,'11111222,11111222,11111222' 
TCOON,ioos:station:TCOON:068:1,2008-09-07T02:00:00Z,27.2970,-97.4049,0.0,5.9,82.0,7.1,'11111222,11111222,11111222' 
TCOON,ioos:station:TCOON:068:1,2008-09-07T03:00:00Z,27.2970,-97.4049,0.0,4.6,83.0,5.5,'11111222,11111222,11111222' 
TCOON,ioos:station:TCOON:068:1,2008-09-07T04:00:00Z,27.2970,-97.4049,0.0,5.0,87.0,5.6,'11111222,11111222,11111222' 
TCOON,ioos:station:TCOON:068:1,2008-09-07T05:00:00Z,27.2970,-97.4049,0.0,5.4,88.0,5.9,'11111222,11111222,11111222' 
TCOON,ioos:station:TCOON:068:1,2008-09-07T06:00:00Z,27.2970,-97.4049,0.0,5.0,86.0,5.7,'11111222,11111222,11111222' 
TCOON,ioos:station:TCOON:068:1,2008-09-07T07:00:00Z,27.2970,-97.4049,0.0,5.3,83.0,6.2,'11111222,11111222,11111222' 
TCOON,ioos:station:TCOON:068:1,2008-09-07T08:00:00Z,27.2970,-97.4049,0.0,4.5,83.0,5.0,'11111222,11111222,11111222' 
TCOON,ioos:station:TCOON:068:1,2008-09-07T09:00:00Z,27.2970,-97.4049,0.0,4.8,84.0,5.4,'11111222,11111222,11111222' 
TCOON,ioos:station:TCOON:068:1,2008-09-07T10:00:00Z,27.2970,-97.4049,0.0,4.8,78.0,5.3,'11111222,11111222,11111222' 
TCOON,ioos:station:TCOON:068:1,2008-09-07T11:00:00Z,27.2970,-97.4049,0.0,4.1,76.0,4.5,'11111222,11111222,11111222' 
TCOON,ioos:station:TCOON:068:1,2008-09-07T12:00:00Z,27.2970,-97.4049,0.0,1.9,107.0,2.3,'11111222,11111222,11111222' 
TCOON,ioos:station:TCOON:068:1,2008-09-07T13:00:00Z,27.2970,-97.4049,0.0,2.2,64.0,2.7,'11111222,11111222,11111222' 
TCOON,ioos:station:TCOON:068:1,2008-09-07T14:00:00Z,27.2970,-97.4049,0.0,2.0,73.0,2.2,'11111222,11111222,11111222' 
TCOON,ioos:station:TCOON:068:1,2008-09-07T15:00:00Z,27.2970,-97.4049,0.0,3.5,52.0,4.0,'11111222,11111222,11111222' 
TCOON,ioos:station:TCOON:068:1,2008-09-07T16:00:00Z,27.2970,-97.4049,0.0,2.4,58.0,2.9,'11111222,11111222,11111222' 
TCOON,ioos:station:TCOON:068:1,2008-09-07T17:00:00Z,27.2970,-97.4049,0.0,5.1,64.0,6.2,'11111222,11111222,11111222' 
TCOON,ioos:station:TCOON:068:1,2008-09-07T18:00:00Z,27.2970,-97.4049,0.0,6.2,112.0,7.2,'11111222,11111222,11111222' 
TCOON,ioos:station:TCOON:068:1,2008-09-07T19:00:00Z,27.2970,-97.4049,0.0,3.8,68.0,4.3,'11111222,11111222,11111222' 
TCOON,ioos:station:TCOON:068:1,2008-09-07T20:00:00Z,27.2970,-97.4049,0.0,2.3,84.0,3.1,'11111222,11111222,11111222' 
TCOON,ioos:station:TCOON:068:1,2008-09-07T21:00:00Z,27.2970,-97.4049,0.0,3.4,93.0,4.4,'11111222,11111222,11111222' 
TCOON,ioos:station:TCOON:068:1,2008-09-07T22:00:00Z,27.2970,-97.4049,0.0,4.1,92.0,4.6,'11111222,11111222,11111222' 
TCOON,ioos:station:TCOON:068:1,2008-09-07T23:00:00Z,27.2970,-97.4049,0.0,5.0,89.0,5.8,'11111222,11111222,11111222' 
TCOON,ioos:station:TCOON:068:1,2008-09-08T00:00:00Z,27.2970,-97.4049,0.0,5.8,71.0,6.4,'11111222,11111222,11111222' 
TCOON,ioos:station:TCOON:068:1,2008-09-08T01:00:00Z,27.2970,-97.4049,0.0,5.0,88.0,5.6,'11111222,11111222,11111222' 
TCOON,ioos:station:TCOON:068:1,2008-09-08T02:00:00Z,27.2970,-97.4049,0.0,5.2,81.0,5.9,'11111222,11111222,11111222' 
TCOON,ioos:station:TCOON:068:1,2008-09-08T03:00:00Z,27.2970,-97.4049,0.0,6.5,76.0,7.6,'11111222,11111222,11111222' 
TCOON,ioos:station:TCOON:068:1,2008-09-08T04:00:00Z,27.2970,-97.4049,0.0,6.0,99.0,7.5,'11111222,11111222,11111222' 
TCOON,ioos:station:TCOON:068:1,2008-09-08T05:00:00Z,27.2970,-97.4049,0.0,7.4,109.0,9.2,'11111222,11111222,11111222' 
TCOON,ioos:station:TCOON:068:1,2008-09-08T06:00:00Z,27.2970,-97.4049,0.0,5.3,115.0,6.6,'11111222,11111222,11111222' 
TCOON,ioos:station:TCOON:068:1,2008-09-08T07:00:00Z,27.2970,-97.4049,0.0,4.0,113.0,4.8,'11111222,11111222,11111222' 
TCOON,ioos:station:TCOON:068:1,2008-09-08T08:00:00Z,27.2970,-97.4049,0.0,3.1,111.0,33.4,'11111222,11111222,11111222' 
TCOON,ioos:station:TCOON:068:1,2008-09-08T09:00:00Z,27.2970,-97.4049,0.0,2.7,105.0,3.3,'11111222,11111222,11111222' 
TCOON,ioos:station:TCOON:068:1,2008-09-08T10:00:00Z,27.2970,-97.4049,0.0,3.1,115.0,3.8,'11111222,11111222,11111222' 
TCOON,ioos:station:TCOON:068:1,2008-09-08T11:00:00Z,27.2970,-97.4049,0.0,3.1,111.0,3.8,'11111222,11111222,11111222' 
TCOON,ioos:station:TCOON:068:1,2008-09-08T12:00:00Z,27.2970,-97.4049,0.0,3.4,94.0,3.8,'11111222,11111222,11111222' 
TCOON,ioos:station:TCOON:068:1,2008-09-08T13:00:00Z,27.2970,-97.4049,0.0,4.7,89.0,5.3,'11111222,11111222,11111222' 
TCOON,ioos:station:TCOON:068:1,2008-09-08T14:00:00Z,27.2970,-97.4049,0.0,5.1,93.0,5.9,'11111222,11111222,11111222' 
TCOON,ioos:station:TCOON:068:1,2008-09-08T15:00:00Z,27.2970,-97.4049,0.0,6.0,94.0,6.6,'11111222,11111222,11111222' 
TCOON,ioos:station:TCOON:068:1,2008-09-08T16:00:00Z,27.2970,-97.4049,0.0,5.2,83.0,6.1,'11111222,11111222,11111222' 
TCOON,ioos:station:TCOON:068:1,2008-09-08T17:00:00Z,27.2970,-97.4049,0.0,6.2,94.0,7.0,'11111222,11111222,11111222' 
TCOON,ioos:station:TCOON:068:1,2008-09-08T18:00:00Z,27.2970,-97.4049,0.0,6.6,87.0,7.6,'11111222,11111222,11111222' 
TCOON,ioos:station:TCOON:068:1,2008-09-08T19:00:00Z,27.2970,-97.4049,0.0,6.4,91.0,7.6,'11111222,11111222,11111222' 
TCOON,ioos:station:TCOON:068:1,2008-09-08T20:00:00Z,27.2970,-97.4049,0.0,6.5,89.0,20.0,'11111222,11111222,11111222' 
TCOON,ioos:station:TCOON:068:1,2008-09-08T21:00:00Z,27.2970,-97.4049,0.0,6.4,108.0,7.5,'11111222,11111222,11111222' 
TCOON,ioos:station:TCOON:068:1,2008-09-08T22:00:00Z,27.2970,-97.4049,0.0,6.2,145.0,6.9,'11111222,11111222,11111222' 
TCOON,ioos:station:TCOON:068:1,2008-09-08T23:00:00Z,27.2970,-97.4049,0.0,6.1,125.0,7.3,'11111222,11111222,11111222' 
TCOON,ioos:station:TCOON:068:1,2008-09-09T00:00:00Z,27.2970,-97.4049,0.0,6.0,107.0,7.3,'11111222,11111222,11111222' 
TCOON,ioos:station:TCOON:068:1,2008-09-09T01:00:00Z,27.2970,-97.4049,0.0,5.4,97.0,6.4,'11111222,11111222,11111222' 
TCOON,ioos:station:TCOON:068:1,2008-09-09T02:00:00Z,27.2970,-97.4049,0.0,5.2,77.0,5.7,'11111222,11111222,11111222' 
TCOON,ioos:station:TCOON:068:1,2008-09-09T03:00:00Z,27.2970,-97.4049,0.0,4.4,118.0,5.4,'11111222,11111222,11111222' 
TCOON,ioos:station:TCOON:068:1,2008-09-09T04:00:00Z,27.2970,-97.4049,0.0,5.6,163.0,6.3,'11111222,11111222,11111222' 
TCOON,ioos:station:TCOON:068:1,2008-09-09T05:00:00Z,27.2970,-97.4049,0.0,3.2,135.0,4.3,'11111222,11111222,11111222' 
TCOON,ioos:station:TCOON:068:1,2008-09-09T06:00:00Z,27.2970,-97.4049,0.0,2.2,117.0,2.7,'11111222,11111222,11111222' 
TCOON,ioos:station:TCOON:068:1,2008-09-09T07:00:00Z,27.2970,-97.4049,0.0,3.5,167.0,4.0,'11111222,11111222,11111222' 
TCOON,ioos:station:TCOON:068:1,2008-09-09T08:00:00Z,27.2970,-97.4049,0.0,1.2,168.0,1.5,'11111222,11111222,11111222' 
TCOON,ioos:station:TCOON:068:1,2008-09-09T09:00:00Z,27.2970,-97.4049,0.0,0.7,249.0,0.9,'11111222,11111222,11111222' 
TCOON,ioos:station:TCOON:068:1,2008-09-09T10:00:00Z,27.2970,-97.4049,0.0,2.9,2.0,3.1,'11111222,11111222,11111222' 
TCOON,ioos:station:TCOON:068:1,2008-09-09T11:00:00Z,27.2970,-97.4049,0.0,3.3,359.0,3.6,'11111222,11111222,11111222' 
TCOON,ioos:station:TCOON:068:1,2008-09-09T12:00:00Z,27.2970,-97.4049,0.0,5.2,102.0,5.9,'11111222,11111222,11111222' 
TCOON,ioos:station:TCOON:068:1,2008-09-09T13:00:00Z,27.2970,-97.4049,0.0,4.7,158.0,5.5,'11111222,11111222,11111222' 
TCOON,ioos:station:TCOON:068:1,2008-09-09T14:00:00Z,27.2970,-97.4049,0.0,3.1,157.0,4.2,'11111222,11111222,11111222' 
TCOON,ioos:station:TCOON:068:1,2008-09-09T15:00:00Z,27.2970,-97.4049,0.0,4.1,119.0,5.2,'11111222,11111222,11111222' 
TCOON,ioos:station:TCOON:068:1,2008-09-09T16:00:00Z,27.2970,-97.4049,0.0,3.3,110.0,3.9,'11111222,11111222,11111222' 
TCOON,ioos:station:TCOON:068:1,2008-09-09T17:00:00Z,27.2970,-97.4049,0.0,3.6,75.0,4.6,'11111222,11111222,11111222' 
TCOON,ioos:station:TCOON:068:1,2008-09-09T18:00:00Z,27.2970,-97.4049,0.0,3.9,85.0,4.6,'11111222,11111222,11111222' 
TCOON,ioos:station:TCOON:068:1,2008-09-09T19:00:00Z,27.2970,-97.4049,0.0,4.9,83.0,5.9,'11111222,11111222,11111222' 
TCOON,ioos:station:TCOON:068:1,2008-09-09T20:00:00Z,27.2970,-97.4049,0.0,5.5,86.0,6.2,'11111222,11111222,11111222' 
TCOON,ioos:station:TCOON:068:1,2008-09-09T21:00:00Z,27.2970,-97.4049,0.0,5.1,92.0,7.3,'11111222,11111222,11111222' 
TCOON,ioos:station:TCOON:068:1,2008-09-09T22:00:00Z,27.2970,-97.4049,0.0,5.7,77.0,7.1,'11111222,11111222,11111222' 
TCOON,ioos:station:TCOON:068:1,2008-09-09T23:00:00Z,27.2970,-97.4049,0.0,7.2,72.0,8.5,'11111222,11111222,11111222' 
TCOON,ioos:station:TCOON:068:1,2008-09-10T00:00:00Z,27.2970,-97.4049,0.0,6.4,79.0,13.3,'11111222,11111222,11111222' 
TCOON,ioos:station:TCOON:068:1,2008-09-10T01:00:00Z,27.2970,-97.4049,0.0,5.6,72.0,6.4,'11111222,11111222,11111222' 
TCOON,ioos:station:TCOON:068:1,2008-09-10T02:00:00Z,27.2970,-97.4049,0.0,5.0,78.0,5.7,'11111222,11111222,11111222' 
TCOON,ioos:station:TCOON:068:1,2008-09-10T03:00:00Z,27.2970,-97.4049,0.0,4.8,91.0,5.5,'11111222,11111222,11111222' 
TCOON,ioos:station:TCOON:068:1,2008-09-10T04:00:00Z,27.2970,-97.4049,0.0,5.8,108.0,6.4,'11111222,11111222,11111222' 
TCOON,ioos:station:TCOON:068:1,2008-09-10T05:00:00Z,27.2970,-97.4049,0.0,4.9,110.0,5.6,'11111222,11111222,11111222' 
TCOON,ioos:station:TCOON:068:1,2008-09-10T06:00:00Z,27.2970,-97.4049,0.0,4.0,109.0,5.1,'11111222,11111222,11111222' 
TCOON,ioos:station:TCOON:068:1,2008-09-10T07:00:00Z,27.2970,-97.4049,0.0,4.1,109.0,4.9,'11111222,11111222,11111222' 
TCOON,ioos:station:TCOON:068:1,2008-09-10T08:00:00Z,27.2970,-97.4049,0.0,3.1,119.0,3.8,'11111222,11111222,11111222' 
TCOON,ioos:station:TCOON:068:1,2008-09-10T09:00:00Z,27.2970,-97.4049,0.0,3.3,126.0,4.1,'11111222,11111222,11111222' 
TCOON,ioos:station:TCOON:068:1,2008-09-10T10:00:00Z,27.2970,-97.4049,0.0,3.5,128.0,4.2,'11111222,11111222,11111222' 